GW2952 Weather Reports


time (UTC)temp
C
wind
direction
speed
KPH
gust
KPH
rain 1hr
cm
rain 24hr
cm
rain mn
cm
humidity
%
barometer
mb
20260510045003 8 160 0.0 6.4 0.00 0.99 0.00 91 1010.8
20260510044502 8 162 1.6 6.4 0.00 0.99 0.00 91 1010.7
20260510044003 8 143 1.6 4.8 0.00 0.99 0.00 91 1010.5
20260510043523 8 118 1.6 4.8 0.00 0.99 0.00 91 1010.2
20260510043003 8 118 1.6 3.2 0.00 0.99 0.00 91 1010.3
20260510042502 8 136 1.6 3.2 0.00 0.99 0.00 91 1010.3
20260510042003 8 152 1.6 6.4 0.00 0.99 0.00 91 1010.3
20260510041502 7 138 1.6 6.4 0.00 0.99 0.00 91 1010.3
20260510041002 7 85 0.0 3.2 0.00 0.99 0.00 90 1010.4
20260510040502 7 78 0.0 3.2 0.00 1.02 0.00 90 1010.5
20260510040003 7 83 0.0 1.6 0.00 1.02 0.00 90 1010.4
20260510035502 7 0 0.0 0.0 0.00 1.04 1.02 90 1010.3
20260510035002 7 220 0.0 1.6 0.00 1.04 1.02 90 1010.5
20260510034502 7 311 0.0 3.2 0.00 1.04 1.02 90 1010.3
20260510034002 7 31 0.0 3.2 0.00 1.04 1.02 90 1010.4
20260510033502 7 0 0.0 0.0 0.00 1.04 1.02 90 1010.2
20260510033002 7 0 0.0 0.0 0.00 1.04 1.02 90 1010.1
20260510032503 7 0 0.0 0.0 0.00 1.04 1.02 90 1010.2
20260510032003 7 0 0.0 0.0 0.00 1.04 1.02 90 1010.4
20260510031503 7 0 0.0 0.0 0.00 1.04 1.02 90 1010.1
20260510031002 7 118 0.0 1.6 0.00 1.04 1.02 89 1010.4
20260510030523 7 110 0.0 3.2 0.00 1.04 1.02 89 1010.2
20260510030002 7 128 0.0 3.2 0.00 1.04 1.02 89 1010.2
20260510025503 7 216 0.0 3.2 0.00 1.04 1.02 89 1010.2
20260510025002 8 130 0.0 3.2 0.00 1.04 1.02 89 1010.1
20260510024503 8 63 0.0 3.2 0.00 1.04 1.02 89 1010.2
20260510024003 8 55 0.0 1.6 0.00 1.04 1.02 89 1010.3
20260510023503 8 53 0.0 1.6 0.00 1.04 1.02 89 1010.2
20260510023023 8 90 0.0 1.6 0.00 1.04 1.02 89 1010.3
20260510022503 8 136 0.0 1.6 0.00 1.04 1.02 89 1010.3
20260510022002 8 163 0.0 3.2 0.00 1.04 1.02 89 1010.3
20260510021503 8 156 0.0 3.2 0.00 1.04 1.02 89 1010.3
20260510021002 8 127 1.6 4.8 0.00 1.04 1.02 89 1010.3
20260510020524 8 119 1.6 4.8 0.00 1.04 1.02 90 1010.3
20260510020002 8 133 1.6 6.4 0.00 1.04 1.02 89 1010.2
20260510015503 8 133 1.6 6.4 0.00 1.04 1.02 89 1010.2
20260510015023 8 120 0.0 3.2 0.00 1.04 1.02 88 1010.4
20260510014523 8 127 0.0 1.6 0.00 1.04 1.02 88 1010.1
20260510014002 8 118 0.0 1.6 0.00 1.04 1.02 88 1010.1
20260510013502 8 99 0.0 3.2 0.00 1.04 1.02 88 1010.1
20260510013023 8 73 0.0 3.2 0.00 1.04 1.02 88 1010.1
20260510012503 8 92 0.0 3.2 0.00 1.04 1.02 88 1010.0
20260510012002 8 118 0.0 3.2 0.00 1.04 1.02 88 1009.9
20260510011503 8 135 1.6 3.2 0.00 1.04 1.02 87 1010.0
20260510011003 8 130 1.6 3.2 0.00 1.04 1.02 87 1010.1
20260510010524 8 125 0.0 1.6 0.00 1.04 1.02 87 1010.1
20260510010003 9 136 0.0 1.6 0.00 1.04 1.02 86 1010.1
20260510005503 9 125 0.0 1.6 0.00 1.04 1.02 86 1009.7
20260510005003 9 199 0.0 1.6 0.00 1.04 1.02 86 1009.8
20260510004503 9 186 0.0 1.6 0.00 1.04 1.02 86 1009.6
20260510004003 9 181 0.0 1.6 0.00 1.04 1.02 86 1009.9
20260510003503 10 220 0.0 3.2 0.00 1.04 1.02 85 1009.8
20260510003003 10 213 0.0 3.2 0.00 1.04 1.02 85 1009.8
20260510002502 10 194 0.0 3.2 0.00 1.04 1.02 85 1009.7
20260510002003 10 199 0.0 4.8 0.00 1.04 1.02 85 1009.4
20260510001503 10 210 1.6 4.8 0.00 1.04 1.02 85 1009.7
20260510001003 10 214 1.6 4.8 0.00 1.04 1.02 85 1009.4
20260510000502 10 202 1.6 4.8 0.00 1.04 1.02 84 1009.2
20260510000003 10 166 1.6 4.8 0.00 1.04 1.02 84 1009.3
20260509235503 11 171 1.6 6.4 0.00 1.04 1.02 84 1009.3
20260509235003 11 185 3.2 9.7 0.00 1.04 1.02 84 1009.4
20260509234503 11 190 1.6 9.7 0.00 1.04 1.02 84 1009.1
20260509234003 11 206 1.6 11.3 0.00 1.04 1.02 83 1009.0
20260509233502 11 189 3.2 12.9 0.00 1.07 1.02 83 1009.0
20260509233024 11 193 3.2 12.9 0.00 1.07 1.02 83 1009.0
20260509232502 11 200 3.2 9.7 0.00 1.07 1.02 84 1009.1
20260509232003 11 195 3.2 9.7 0.00 1.07 1.02 83 1009.2
20260509231503 11 231 3.2 9.7 0.00 1.07 1.02 84 1008.8
20260509231003 11 230 3.2 9.7 0.00 1.07 1.02 84 1008.9
20260509230524 11 201 3.2 11.3 0.00 1.07 1.02 84 1009.0
20260509230003 11 186 3.2 11.3 0.00 1.07 1.02 84 1009.0
20260509225503 11 197 3.2 9.7 0.00 1.07 1.02 84 1009.0
20260509225003 11 197 3.2 9.7 0.00 1.07 1.02 84 1009.1
20260509224524 11 186 3.2 12.9 0.00 1.07 1.02 84 1008.8
20260509224003 11 192 4.8 12.9 0.00 1.07 1.02 84 1009.1
20260509223503 11 199 4.8 14.5 0.00 1.07 1.02 85 1009.2
20260509223003 11 216 3.2 14.5 0.00 1.07 1.02 85 1008.8
20260509222503 11 240 3.2 17.7 0.00 1.07 1.02 86 1009.0
20260509222003 11 244 3.2 17.7 0.00 1.07 1.02 86 1009.0
20260509221503 11 239 3.2 12.9 0.00 1.07 1.02 86 1009.1
20260509221003 11 259 3.2 16.1 0.00 1.07 1.02 87 1009.0
20260509220503 11 256 3.2 16.1 0.00 1.07 1.02 86 1009.0
20260509220003 11 271 3.2 14.5 0.00 1.07 1.02 87 1009.1
20260509215524 11 262 3.2 9.7 0.00 1.07 1.02 88 1009.2
20260509215003 11 231 3.2 16.1 0.00 1.07 1.02 88 1009.2
20260509214503 11 221 3.2 16.1 0.00 1.07 1.02 88 1009.3
20260509214002 11 218 3.2 16.1 0.00 1.07 1.02 88 1009.1
20260509213503 11 226 4.8 16.1 0.00 1.07 1.02 88 1009.3
20260509213024 10 229 3.2 16.1 0.00 1.07 1.02 88 1009.4
20260509212503 10 234 3.2 16.1 0.00 1.07 1.02 88 1009.5
20260509212003 10 228 3.2 17.7 0.00 1.07 1.02 89 1009.4
20260509211503 10 213 6.4 24.1 0.00 1.07 1.02 88 1009.3
20260509211003 10 228 6.4 24.1 0.00 1.07 1.02 88 1009.3
20260509210503 10 256 4.8 16.1 0.00 1.07 1.02 89 1009.3
20260509210024 10 243 4.8 16.1 0.00 1.07 1.02 90 1009.6
20260509205503 10 251 3.2 20.9 0.00 1.07 1.02 90 1009.2
20260509205003 10 253 4.8 20.9 0.00 1.07 1.02 90 1009.4
20260509204524 10 239 4.8 20.9 0.03 1.07 1.02 90 1009.5
20260509204003 10 229 4.8 16.1 0.03 1.07 1.02 90 1009.3
20260509203503 10 232 3.2 11.3 0.05 1.07 1.02 90 1009.3
20260509203003 10 232 3.2 11.3 0.05 1.07 1.02 90 1009.4
20260509202503 9 226 1.6 6.4 0.08 1.07 1.02 90 1009.3
20260509202003 9 248 0.0 3.2 0.08 1.07 1.02 90 1009.4
20260509201503 9 297 1.6 9.7 0.10 1.07 1.02 90 1009.6
20260509201024 9 274 1.6 9.7 0.10 1.07 1.02 90 1009.5
20260509200503 9 255 1.6 9.7 0.10 1.07 1.02 90 1009.6
20260509200003 9 254 1.6 9.7 0.10 1.07 1.02 90 1009.6
20260509195503 9 251 3.2 11.3 0.13 1.07 1.02 90 1009.7
20260509195003 9 253 3.2 11.3 0.15 1.04 1.02 90 1009.9
20260509194503 9 258 3.2 11.3 0.15 1.04 0.99 90 1009.9
20260509194003 9 256 4.8 24.1 0.18 1.04 0.99 90 1010.0
20260509193524 9 254 4.8 24.1 0.18 1.02 0.99 90 1010.1
20260509193003 9 248 3.2 16.1 0.18 1.02 0.97 90 1010.1
20260509192503 9 242 4.8 17.7 0.18 0.99 0.94 90 1010.2
20260509192003 9 241 6.4 24.1 0.18 0.99 0.94 90 1010.4
20260509191503 8 238 4.8 24.1 0.18 0.97 0.94 90 1010.3
20260509191003 8 234 3.2 11.3 0.20 0.97 0.94 90 1010.3
20260509190503 8 252 3.2 11.3 0.23 0.97 0.91 90 1010.3
20260509190003 8 246 3.2 16.1 0.23 0.94 0.91 90 1010.6
20260509185503 8 236 3.2 16.1 0.23 0.94 0.89 90 1010.5
20260509185003 8 252 3.2 9.7 0.23 0.91 0.86 90 1010.5
20260509184503 8 240 4.8 20.9 0.23 0.89 0.84 90 1010.7
20260509184024 8 225 4.8 20.9 0.23 0.86 0.84 90 1010.7
20260509183503 8 226 4.8 16.1 0.23 0.84 0.79 90 1010.7
20260509183003 8 225 4.8 17.7 0.23 0.84 0.79 90 1010.8
20260509182524 8 213 6.4 20.9 0.25 0.81 0.76 90 1010.9
20260509182003 8 205 4.8 20.9 0.25 0.79 0.76 90 1010.7
20260509181503 9 187 3.2 14.5 0.28 0.79 0.74 90 1010.8
20260509181003 8 185 3.2 11.3 0.28 0.76 0.71 90 1010.5
20260509180524 9 192 4.8 14.5 0.25 0.74 0.71 90 1010.5
20260509180024 9 187 4.8 14.5 0.25 0.71 0.66 90 1010.6
20260509175503 9 185 4.8 17.7 0.23 0.69 0.66 90 1010.7
20260509175003 9 185 6.4 17.7 0.23 0.66 0.64 90 1010.7
20260509174503 9 198 8.0 22.5 0.23 0.66 0.61 90 1010.7
20260509174003 9 197 6.4 22.5 0.23 0.64 0.61 90 1010.8
20260509173503 9 196 4.8 20.9 0.20 0.61 0.58 90 1010.8
20260509173003 9 200 3.2 20.9 0.18 0.58 0.56 90 1010.7
20260509172503 9 183 4.8 20.9 0.18 0.56 0.51 90 1010.8
20260509172003 9 174 4.8 20.9 0.18 0.53 0.51 90 1010.8
20260509171503 9 156 3.2 12.9 0.15 0.51 0.48 90 1010.9
20260509171003 9 178 4.8 14.5 0.15 0.48 0.46 90 1010.7
20260509170504 9 194 6.4 17.7 0.15 0.48 0.43 90 1010.5
20260509170024 9 179 4.8 17.7 0.13 0.46 0.43 90 1010.7
20260509165503 9 168 3.2 16.1 0.13 0.46 0.41 89 1010.8
20260509165003 9 169 3.2 16.1 0.13 0.43 0.41 89 1010.8
20260509164503 9 166 3.2 12.9 0.13 0.43 0.38 90 1010.8
20260509164003 9 172 3.2 14.5 0.10 0.43 0.38 90 1010.7
20260509163503 9 193 3.2 14.5 0.10 0.41 0.38 90 1010.8
20260509163003 9 193 4.8 11.3 0.10 0.41 0.36 89 1010.7
20260509162503 9 181 4.8 12.9 0.08 0.38 0.36 89 1010.6
20260509162003 9 178 4.8 16.1 0.05 0.38 0.33 89 1010.8
20260509161503 9 157 4.8 16.1 0.05 0.36 0.33 89 1010.9
20260509161003 9 159 4.8 12.9 0.05 0.33 0.30 89 1010.7
20260509160503 9 171 4.8 14.5 0.03 0.33 0.28 89 1010.9
20260509160003 9 173 4.8 14.5 0.03 0.33 0.28 90 1011.0
20260509155503 9 169 3.2 12.9 0.03 0.33 0.28 89 1010.8
20260509155003 9 153 3.2 12.9 0.03 0.30 0.28 89 1011.0
20260509154503 9 143 3.2 12.9 0.05 0.30 0.28 89 1011.0
20260509154024 9 142 3.2 9.7 0.05 0.30 0.28 89 1010.9
20260509153524 9 165 3.2 11.3 0.05 0.30 0.28 89 1010.9
20260509153003 8 150 3.2 11.3 0.08 0.30 0.28 89 1010.7
20260509152503 8 129 3.2 9.7 0.08 0.30 0.28 89 1010.5
20260509152003 9 138 3.2 6.4 0.10 0.30 0.28 89 1010.6
20260509151524 9 142 1.6 6.4 0.10 0.30 0.28 90 1010.6
20260509151003 8 137 1.6 6.4 0.10 0.30 0.25 90 1010.7
20260509150503 8 163 1.6 12.9 0.10 0.30 0.25 89 1011.0
20260509150003 8 162 1.6 12.9 0.13 0.30 0.25 89 1011.1
20260509145503 8 147 1.6 4.8 0.13 0.30 0.25 89 1011.1
20260509145003 8 161 1.6 9.7 0.13 0.28 0.25 89 1011.2
20260509144503 8 156 3.2 9.7 0.10 0.28 0.23 89 1011.2
20260509144003 8 149 3.2 9.7 0.13 0.28 0.23 89 1011.4
20260509143524 8 137 3.2 9.7 0.10 0.25 0.20 89 1011.3
20260509143003 8 149 3.2 9.7 0.10 0.23 0.20 89 1011.4
20260509142503 8 153 3.2 6.4 0.10 0.23 0.18 89 1011.0
20260509142003 8 135 3.2 6.4 0.08 0.20 0.18 89 1010.9
20260509141503 8 137 3.2 11.3 0.05 0.20 0.15 89 1011.0
20260509141003 8 138 3.2 11.3 0.05 0.18 0.15 88 1010.8
20260509140524 8 132 3.2 6.4 0.05 0.18 0.15 88 1010.9
20260509140003 8 136 3.2 6.4 0.05 0.18 0.15 88 1010.8
20260509135503 8 140 3.2 6.4 0.05 0.18 0.13 87 1010.6
20260509135003 8 126 3.2 6.4 0.05 0.18 0.13 88 1010.7
20260509134503 8 122 3.2 6.4 0.05 0.15 0.13 87 1010.8
20260509134003 8 128 3.2 6.4 0.03 0.15 0.10 87 1010.8
20260509133503 8 139 3.2 6.4 0.03 0.15 0.10 87 1010.6
20260509133004 8 142 3.2 11.3 0.03 0.15 0.10 86 1010.8
20260509132503 8 137 3.2 11.3 0.03 0.15 0.10 86 1010.9
20260509132003 8 132 1.6 6.4 0.03 0.15 0.10 86 1010.6
20260509131503 8 133 3.2 6.4 0.03 0.15 0.10 86 1010.8
20260509131003 8 136 1.6 4.8 0.03 0.15 0.10 86 1010.9
20260509130524 8 124 1.6 9.7 0.00 0.13 0.10 85 1010.9
20260509130004 8 124 3.2 9.7 0.00 0.13 0.10 85 1010.9
20260509125503 8 137 1.6 9.7 0.00 0.13 0.10 85 1011.0
20260509125003 8 136 3.2 6.4 0.00 0.13 0.10 85 1011.1
20260509124503 8 133 3.2 9.7 0.00 0.13 0.08 84 1011.1
20260509124003 8 138 3.2 9.7 0.00 0.13 0.08 84 1011.3
20260509123524 8 135 3.2 6.4 0.00 0.13 0.08 84 1011.2
20260509123003 8 129 3.2 9.7 0.00 0.13 0.08 83 1011.3
20260509122524 8 121 3.2 9.7 0.00 0.13 0.08 84 1011.1
20260509122003 8 132 3.2 9.7 0.00 0.13 0.08 85 1011.2
20260509121503 8 142 3.2 9.7 0.00 0.13 0.08 86 1011.2
20260509121003 8 140 3.2 9.7 0.00 0.13 0.08 87 1011.1
20260509120503 8 135 3.2 6.4 0.00 0.13 0.08 87 1011.1
20260509120003 8 131 1.6 6.4 0.00 0.13 0.08 88 1011.1
20260509115524 8 142 1.6 4.8 0.00 0.13 0.08 88 1011.2
20260509115003 8 141 1.6 4.8 0.00 0.13 0.08 88 1010.9
20260509114503 7 141 1.6 4.8 0.03 0.13 0.08 88 1010.8
20260509114003 7 138 1.6 4.8 0.03 0.13 0.08 88 1010.8
20260509113503 7 107 1.6 6.4 0.03 0.13 0.08 88 1010.8
20260509113003 7 106 1.6 6.4 0.03 0.13 0.08 88 1011.0
20260509112524 7 133 1.6 4.8 0.03 0.13 0.08 89 1011.2
20260509112003 7 131 1.6 4.8 0.03 0.13 0.08 89 1010.9
20260509111503 7 143 1.6 3.2 0.00 0.10 0.08 88 1011.0
20260509111003 7 148 1.6 3.2 0.00 0.10 0.08 89 1010.8
20260509110503 7 145 1.6 4.8 0.00 0.10 0.08 89 1010.8
20260509110003 7 140 1.6 4.8 0.00 0.10 0.08 89 1010.9
20260509105524 7 134 1.6 4.8 0.00 0.10 0.08 88 1010.9
20260509105003 7 130 1.6 6.4 0.00 0.10 0.08 89 1011.0
20260509104503 7 129 1.6 6.4 0.00 0.10 0.05 89 1010.9
20260509104003 7 119 1.6 4.8 0.00 0.10 0.05 89 1010.9
20260509103503 7 128 3.2 6.4 0.00 0.10 0.05 89 1010.7
20260509103003 7 152 3.2 9.7 0.00 0.10 0.05 89 1010.8
20260509102503 7 109 3.2 9.7 0.00 0.10 0.05 89 1010.8
20260509102003 7 96 1.6 4.8 0.00 0.10 0.05 89 1010.7
20260509101503 7 125 0.0 1.6 0.00 0.10 0.05 89 1011.0
20260509101003 7 165 0.0 3.2 0.00 0.10 0.05 89 1011.2
20260509100503 7 156 0.0 3.2 0.00 0.10 0.05 89 1011.0
20260509100002 7 211 0.0 1.6 0.00 0.10 0.05 89 1011.0
20260509095503 7 144 0.0 3.2 0.00 0.10 0.05 89 1011.0
20260509095003 6 117 0.0 3.2 0.00 0.10 0.05 89 1010.8
20260509094503 6 0 0.0 0.0 0.00 0.10 0.05 89 1011.1
20260509094024 6 0 0.0 0.0 0.00 0.10 0.05 89 1011.0
20260509093503 6 0 0.0 0.0 0.00 0.10 0.05 89 1011.0
20260509093003 7 0 0.0 0.0 0.00 0.10 0.05 89 1011.0
20260509092503 7 145 0.0 1.6 0.00 0.10 0.05 89 1011.1
20260509092003 7 132 0.0 3.2 0.00 0.10 0.05 89 1011.0
20260509091503 7 131 0.0 3.2 0.00 0.10 0.05 89 1011.0
20260509091003 7 168 0.0 1.6 0.00 0.10 0.05 89 1011.0
20260509090524 7 0 0.0 0.0 0.00 0.10 0.05 89 1011.1
20260509090003 7 0 0.0 0.0 0.00 0.10 0.05 89 1011.2
20260509085503 7 0 0.0 0.0 0.00 0.10 0.05 88 1011.5
20260509085024 7 0 0.0 0.0 0.00 0.10 0.05 88 1011.5
20260509084503 7 0 0.0 0.0 0.00 0.10 0.05 88 1011.5
20260509084003 7 0 0.0 0.0 0.00 0.10 0.05 88 1011.5
20260509083503 7 0 0.0 0.0 0.00 0.10 0.05 88 1011.7
20260509083003 7 0 0.0 0.0 0.00 0.10 0.05 88 1011.5
20260509082503 7 0 0.0 0.0 0.00 0.10 0.05 88 1011.4
20260509082003 7 0 0.0 0.0 0.00 0.10 0.05 88 1011.3
20260509081503 6 0 0.0 0.0 0.00 0.10 0.05 88 1011.7
20260509081004 6 0 0.0 0.0 0.00 0.10 0.05 88 1011.6
20260509080503 6 0 0.0 0.0 0.00 0.10 0.05 88 1011.6
20260509080003 6 0 0.0 0.0 0.00 0.10 0.05 88 1011.6
20260509075503 6 0 0.0 0.0 0.00 0.10 0.05 88 1011.7
20260509075003 6 0 0.0 0.0 0.00 0.10 0.05 88 1011.6
20260509074503 7 0 0.0 0.0 0.00 0.10 0.05 88 1011.9
20260509074003 7 114 0.0 3.2 0.00 0.10 0.05 88 1011.8
20260509073503 7 114 0.0 3.2 0.00 0.10 0.05 88 1011.6
20260509073003 7 0 0.0 0.0 0.00 0.10 0.05 88 1011.5
20260509072503 6 0 0.0 0.0 0.00 0.10 0.05 88 1011.6
20260509072003 6 0 0.0 0.0 0.00 0.10 0.05 88 1011.5
20260509071503 6 0 0.0 0.0 0.00 0.10 0.05 87 1011.4
20260509071003 6 0 0.0 0.0 0.00 0.10 0.05 87 1011.5
20260509070503 7 0 0.0 0.0 0.00 0.10 0.05 87 1011.3
20260509070003 7 150 0.0 1.6 0.00 0.10 0.05 87 1011.4
20260509065504 7 150 0.0 1.6 0.00 0.10 0.05 87 1011.5
20260509065003 7 208 0.0 1.6 0.00 0.10 0.05 87 1011.4
20260509064503 7 203 0.0 1.6 0.00 0.10 0.05 87 1011.3
20260509064003 7 337 0.0 1.6 0.00 0.10 0.05 87 1011.2
20260509063524 7 350 0.0 1.6 0.00 0.10 0.05 87 1011.3
20260509063003 7 0 0.0 0.0 0.00 0.10 0.05 87 1011.6
20260509062503 7 336 0.0 1.6 0.03 0.10 0.05 87 1011.7
20260509062024 7 341 1.6 3.2 0.03 0.10 0.05 86 1011.6
20260509061504 7 345 1.6 3.2 0.03 0.10 0.05 86 1011.9
20260509061003 7 352 0.0 3.2 0.00 0.10 0.05 86 1012.1
20260509060503 7 79 0.0 1.6 0.03 0.10 0.05 86 1012.0
20260509060003 7 100 1.6 6.4 0.03 0.13 0.05 86 1011.9
20260509055503 7 112 1.6 6.4 0.03 0.13 0.05 87 1012.0
20260509055003 7 129 1.6 4.8 0.03 0.13 0.05 87 1012.4
20260509054503 7 121 1.6 4.8 0.03 0.13 0.05 87 1012.3
20260509054003 7 127 1.6 3.2 0.03 0.15 0.05 87 1012.2
20260509053503 7 128 1.6 3.2 0.03 0.15 0.05 87 1012.5
20260509053003 7 125 1.6 9.7 0.03 0.15 0.05 87 1012.3
20260509052503 7 125 3.2 9.7 0.00 0.15 0.03 87 1012.4
20260509052003 7 119 3.2 9.7 0.00 0.15 0.03 88 1012.4
20260509051524 7 133 3.2 9.7 0.00 0.15 0.03 88 1012.5
20260509051003 7 151 1.6 6.4 0.00 0.15 0.03 88 1012.6
20260509050524 7 142 1.6 4.8 0.00 0.13 0.03 88 1011.9
20260509050003 7 0 0.0 0.0 0.03 0.13 0.03 86 1012.0
20260509045524 7 148 0.0 1.6 0.03 0.13 0.03 86 1011.8